User: anonymous   Login
Location: Unspecified
(0.0000°N, 0.0000°E)
Time: 23:30:07
(UTC+00:00)
Language:

Vela 3A - Orbit

View from above orbital plane
View from above orbital plane
View from above satellite
View from above satellite

Ground track
Ground track

The orbit data is extracted from the following two-line orbital elements,

1 01458U 65058A   16244.26783597 -.00001237  00000-0  00000+0 0  9999
2 01458  23.9065   8.9051 4976207 212.8840 359.4410  0.21292877 78557
Epoch (UTC): 31 August 2016 06:25:41
Eccentricity: 0.4976207
inclination: 23.9065°
perigee height: 53134 km
apogee height: 171031 km
right ascension of ascending node: 8.9051°
argument of perigee: 212.8840°
revolutions per day: 0.21292877
mean anomaly at epoch: 359.4410°
orbit number at epoch: 7855

The dashed part of the orbit path shows where the satellite is in the earth's shadow,  

DLR